Погода в Мынчаково

Россия / Вологодская область     59°27′59″N   39°09′29″E
темп.,
°C
ветер,
м/с
пор.,
м/с
влажн.,
%
обл.,
%
осадки,
мм/ч
давл.,
гПа
погр.,
м
16 мая, вс
вс1600:00+13ююз3796100 1.1 1005181
03:00+12ююз4139311 1.1 1006342
06:00+13ююз412920 0.0 1006492
09:00+17ююз59755 0.0 1007850
12:00+18юз686575 0.4 10081362
15:00+19юз696440 0.8 10081439
18:00+17юз49815 1.6 1009797
21:00+13юз389695 1.8 1010190
17 мая, пн
пн1700:00+12зюз39971 0.0 1012255
03:00+10з27977 0.0 1013157
06:00+13зюз24941 0.0 1015146
09:00+17зсз127418 0.0 1016667
12:00+21ююз1256100 0.1 10171540
15:00+22вюв235157 0.1 10161659
18:00+21вюв356327 0.0 1016519
21:00+16в378414 0.0 1016141
18 мая, вт
вт1800:00+14вюв3109017 0.0 1016210
03:00+14вюв4148787 0.1 1015342
06:00+14вюв5118850 0.1 1015324
09:00+20юв5107383 0.1 1014507
12:00+25юв6115026 0.0 10131260
15:00+27юв610475 0.0 10132381
18:00+25юв49571 0.0 1012812
21:00+20юв514785 0.0 1012481
19 мая, ср
ср1900:00+17юв4148535 0.0 1012421
03:00+15юв413874 0.0 1012308
06:00+17юв413835 0.0 1012384
09:00+23ююв512575 0.0 1012650
12:00+27юв612445 0.0 10111122
15:00+28юв613421 0.0 10112745
18:00+26юв511512 0.0 10101263
21:00+20юв414721 0.0 1010504
20 мая, чт
чт2000:00+19ююв51576100 0.1 1010558
03:00+16ююв377715 0.1 1011165
06:00+16юв398110 0.0 1010280
09:00+21юв476858 0.0 1009712
12:00+25юв59554 0.0 10081438
15:00+27юв713515 0.0 10062253
18:00+22ююв816675 0.6 10051736
21:00+15ююз412821 1.0 1006887